{"data":{"norad_id":63569,"epoch":"2026-05-24T18:56:26.333088Z","epoch_age_seconds":89880,"freshness":"FRESH","line1":"1 63569U 25076A   26144.78919367  .00017845  00000+0  65612-3 0  9993","line2":"2 63569  42.9988 255.9046 0001912 278.0604  82.0031 15.27594461 63425","mean_motion":15.27594461,"eccentricity":0.0001912,"inclination_deg":42.9988,"raan_deg":255.9046,"arg_perigee_deg":278.0604,"mean_anomaly_deg":82.0031,"bstar":0.00065612,"rev_number":6342,"period_min":94.265856335807,"perigee_km":481.69394444254,"apogee_km":484.31764544732,"semimajor_km":6861.1427949449,"source":"CELESTRAK","updated_at":"2026-05-25T13:38:20.045242Z"}}